Weather History for Pittsfield, IL

Change the Weather History Date:

Friday, November 30, 2012

  Actual Average (KUIN) Record (KUIN)
Temperature  
Mean Temperature 50 °F 35 °F  
Max Temperature 63 °F 43 °F 72 °F (1933)
Min Temperature 37 °F 27 °F -11 °F (1964)
Degree Days  
Heating Degree Days 15 30  
Month to date heating degree days 677  
Since 1 July heating degree days 1100  
Cooling Degree Days 0 0  
Month to date cooling degree days 1  
Year to date cooling degree days 1094  
Moisture  
Dew Point 35 °F    
Average Humidity 58    
Maximum Humidity 87    
Minimum Humidity 41    
Precipitation  
Precipitation 0.00 in 0.09 in 2.59 in (1930)
Month to date precipitation 3.02  
Year to date precipitation 35.08  
Sea Level Pressure  
Sea Level Pressure 30.07 in    
Wind  
Wind Speed 7 mph (SW)    
Max Wind Speed 16 mph    
Max Gust Speed 20 mph    
Visibility 10 miles    
Events      
T = Trace of Precipitation, MM = Missing Value Source: NWS Daily Summary

Daily Weather History Graph

Daily Weather History Graph

Search for Another Location

Airport:

Trip Planner

Search our weather history database for the weather conditions in past years. The results will help you decide how hot, cold, wet, or windy it might be!

Date:

Astronomy

Nov. 30, 2012 Rise Set
Actual Time 7:04 AM CST 4:39 PM CST
Civil Twilight 6:34 AM CST 5:09 PM CST
Nautical Twilight 6:01 AM CST 5:42 PM CST
Astronomical Twilight 5:28 AM CST 6:15 PM CST
Moon 6:34 PM CST (11/30) 8:36 AM CST (11/30)
Length of Visible Light 10h 34m
Length of Day
9h 35m
Waning Gibbous, 96% of the Moon is Illuminated
Nov 30
Waning Gibbous
Dec 6
Last Quarter
Dec 13
New
Dec 19
First Quarter
Dec 28
Full

Hourly Weather History & Observations

Time (CST) Temp. Windchill Dew Point Humidity Pressure Visibility Wind Dir Wind Speed Gust Speed Precip Events Conditions
12:15 AM 47.5 °F - 31.1 °F 53% 30.07 in 10.0 mi South 8.1 mph - N/A   Clear
12:35 AM 46.9 °F - 31.5 °F 55% 30.07 in 10.0 mi South 8.1 mph - N/A   Clear
12:55 AM 46.6 °F - 31.6 °F 56% 30.07 in 10.0 mi South 8.1 mph - N/A   Clear
1:15 AM 46.6 °F - 31.8 °F 56% 30.07 in 10.0 mi South 8.1 mph - N/A   Clear
1:35 AM 46.6 °F - 31.8 °F 56% 30.07 in 10.0 mi South 9.2 mph - N/A   Clear
1:55 AM 46.6 °F - 32.0 °F 57% 30.07 in 10.0 mi SSW 8.1 mph - N/A   Clear
2:15 AM 46.4 °F 41.9 °F 32.0 °F 57% 30.07 in 10.0 mi South 9.2 mph - N/A   Clear
2:35 AM 46.2 °F 41.7 °F 32.0 °F 58% 30.07 in 10.0 mi South 9.2 mph - N/A   Clear
2:55 AM 46.2 °F 41.7 °F 32.0 °F 58% 30.07 in 10.0 mi South 9.2 mph - N/A   Clear
3:15 AM 46.4 °F 41.5 °F 32.0 °F 57% 30.06 in 10.0 mi SSW 10.4 mph - N/A   Clear
3:35 AM 45.7 °F 41.0 °F 32.0 °F 59% 30.06 in 10.0 mi SSW 9.2 mph - N/A   Clear
3:55 AM 45.5 °F 40.3 °F 32.0 °F 59% 30.06 in 10.0 mi SSW 10.4 mph - N/A   Clear
4:15 AM 45.5 °F 40.3 °F 32.0 °F 59% 30.06 in 10.0 mi SSW 10.4 mph - N/A   Clear
4:35 AM 45.3 °F 40.6 °F 32.0 °F 60% 30.06 in 10.0 mi SSW 9.2 mph - N/A   Clear
4:55 AM 45.5 °F 40.3 °F 32.0 °F 59% 30.06 in 10.0 mi SSW 10.4 mph - N/A   Clear
5:15 AM 45.5 °F 40.8 °F 32.0 °F 59% 30.05 in 10.0 mi SSW 9.2 mph - N/A   Clear
5:35 AM 45.0 °F 39.3 °F 32.0 °F 60% 30.06 in 10.0 mi SSW 11.5 mph - N/A   Clear
5:55 AM 45.0 °F 39.7 °F 32.0 °F 60% 30.06 in 10.0 mi SSW 10.4 mph - N/A   Clear
6:15 AM 44.6 °F 39.2 °F 32.0 °F 61% 30.06 in 10.0 mi SSW 10.4 mph - N/A   Clear
6:35 AM 43.9 °F 40.5 °F 32.0 °F 63% 30.06 in 10.0 mi SSW 5.8 mph - N/A   Clear
6:55 AM 44.1 °F 40.1 °F 32.0 °F 63% 30.07 in 10.0 mi SSW 6.9 mph - N/A   Clear
7:15 AM 44.2 °F 40.3 °F 32.0 °F 62% 30.07 in 10.0 mi SSW 6.9 mph - N/A   Clear
7:35 AM 43.7 °F 39.7 °F 32.0 °F 63% 30.07 in 10.0 mi SSW 6.9 mph - N/A   Clear
7:55 AM 45.3 °F 41.1 °F 32.4 °F 61% 30.08 in 10.0 mi SW 8.1 mph - N/A   Clear
8:15 AM 47.5 °F - 32.5 °F 56% 30.08 in 10.0 mi SW 6.9 mph - N/A   Clear
8:35 AM 49.3 °F - 33.1 °F 54% 30.08 in 10.0 mi SW 8.1 mph - N/A   Clear
8:55 AM 50.9 °F - 33.3 °F 51% 30.08 in 10.0 mi SW 8.1 mph - N/A   Clear
9:15 AM 52.7 °F - 34.0 °F 49% 30.08 in 10.0 mi SW 15.0 mph - N/A   Clear
9:35 AM 54.1 °F - 34.3 °F 47% 30.09 in 10.0 mi SW 12.7 mph - N/A   Clear
9:55 AM 55.6 °F - 34.5 °F 45% 30.09 in 10.0 mi WSW 16.1 mph - N/A   Clear
10:15 AM 56.1 °F - 35.1 °F 45% 30.10 in 10.0 mi WSW 15.0 mph - N/A   Clear
10:35 AM 56.5 °F - 35.4 °F 45% 30.09 in 10.0 mi WSW 15.0 mph 18.4 mph N/A   Clear
10:55 AM 57.2 °F - 36.0 °F 45% 30.08 in 10.0 mi West 13.8 mph 19.6 mph N/A   Clear
11:15 AM 57.7 °F - 36.5 °F 45% 30.08 in 10.0 mi WSW 12.7 mph - N/A   Clear
11:35 AM 58.1 °F - 36.5 °F 44% 30.06 in 10.0 mi WSW 11.5 mph - N/A   Clear
11:55 AM 59.0 °F - 37.0 °F 44% 30.07 in 10.0 mi WSW 8.1 mph - N/A   Clear
12:15 PM 59.0 °F - 37.2 °F 44% 30.06 in 10.0 mi WSW 8.1 mph - N/A   Clear
12:35 PM 59.9 °F - 37.6 °F 44% 30.06 in 10.0 mi SW 6.9 mph - N/A   Clear
12:55 PM 60.4 °F - 37.8 °F 43% 30.05 in 10.0 mi WSW 6.9 mph - N/A   Clear
1:15 PM 60.8 °F - 37.6 °F 42% 30.05 in 10.0 mi SW 6.9 mph - N/A   Clear
1:35 PM 61.7 °F - 38.3 °F 42% 30.05 in 10.0 mi WSW 9.2 mph - N/A   Clear
1:55 PM 62.2 °F - 38.3 °F 41% 30.05 in 10.0 mi SW 10.4 mph - N/A   Clear
2:15 PM 62.6 °F - 38.3 °F 41% 30.05 in 10.0 mi SSW 9.2 mph - N/A   Clear
2:35 PM 62.8 °F - 38.7 °F 41% 30.05 in 10.0 mi SSW 8.1 mph - N/A   Clear
2:55 PM 63.0 °F - 38.7 °F 41% 30.05 in 10.0 mi SW 9.2 mph - N/A   Clear
3:15 PM 62.8 °F - 39.0 °F 42% 30.05 in 10.0 mi SW 9.2 mph - N/A   Clear
3:35 PM 62.2 °F - 39.2 °F 43% 30.06 in 10.0 mi SW 6.9 mph - N/A   Clear
3:55 PM 61.7 °F - 38.8 °F 43% 30.06 in 10.0 mi WSW 5.8 mph - N/A   Clear
4:15 PM 60.6 °F - 39.2 °F 45% 30.06 in 10.0 mi WSW 4.6 mph - N/A   Clear
4:35 PM 59.9 °F - 38.7 °F 45% 30.07 in 10.0 mi Calm Calm - N/A   Clear
4:55 PM 59.0 °F - 38.7 °F 47% 30.07 in 10.0 mi Calm Calm - N/A   Clear
5:15 PM 55.9 °F - 38.7 °F 52% 30.08 in 10.0 mi Calm Calm - N/A   Clear
5:35 PM 56.1 °F - 38.7 °F 52% 30.08 in 10.0 mi Calm Calm - N/A   Clear
5:55 PM 53.8 °F - 38.5 °F 56% 30.08 in 10.0 mi Calm Calm - N/A   Clear
6:15 PM 52.7 °F - 38.8 °F 59% 30.08 in 10.0 mi Calm Calm - N/A   Clear
6:35 PM 50.0 °F - 38.5 °F 65% 30.09 in 10.0 mi Calm Calm - N/A   Clear
6:55 PM 50.0 °F - 37.8 °F 63% 30.09 in 10.0 mi Calm Calm - N/A   Clear
7:15 PM 47.3 °F - 37.4 °F 68% 30.09 in 10.0 mi Calm Calm - N/A   Clear
7:35 PM 46.4 °F - 36.9 °F 69% 30.09 in 10.0 mi Calm Calm - N/A   Clear
7:55 PM 46.0 °F - 37.2 °F 71% 30.09 in 10.0 mi Calm Calm - N/A   Clear
8:15 PM 45.0 °F - 36.7 °F 73% 30.08 in 10.0 mi Calm Calm - N/A   Clear
8:35 PM 43.5 °F - 36.0 °F 75% 30.08 in 10.0 mi Calm Calm - N/A   Clear
8:55 PM 42.8 °F - 35.6 °F 76% 30.08 in 10.0 mi Calm Calm - N/A   Clear
9:15 PM 41.7 °F - 35.4 °F 78% 30.09 in 10.0 mi Calm Calm - N/A   Clear
9:35 PM 41.4 °F - 35.6 °F 80% 30.09 in 10.0 mi Calm Calm - N/A   Clear
9:55 PM 40.5 °F - 34.7 °F 80% 30.08 in 7.0 mi Calm Calm - N/A   Clear
10:15 PM 39.4 °F - 34.2 °F 82% 30.08 in 10.0 mi Calm Calm - N/A   Clear
10:35 PM 37.8 °F - 33.6 °F 85% 30.08 in 10.0 mi Calm Calm - N/A   Clear
10:55 PM 37.4 °F - 33.8 °F 87% 30.08 in 10.0 mi Calm Calm - N/A   Clear
11:15 PM 39.2 °F - 34.5 °F 83% 30.07 in 10.0 mi Calm Calm - N/A   Clear
11:35 PM 38.8 °F - 34.3 °F 84% 30.08 in 10.0 mi Calm Calm - N/A   Clear
11:55 PM 38.5 °F - 33.6 °F 83% 30.08 in 10.0 mi Calm Calm - N/A   Clear